653  
ASUS45 KTFX 161110  
RWRMT  
MONTANA REGIONAL WEATHER ROUNDUP  
NATIONAL WEATHER SERVICE GREAT FALLS MT  
400 AM MST TUE JAN 16 2018  
 
NOTE: "FAIR" INDICATES FEW OR NO CLOUDS BELOW 12000 FEET WITH NO  
SIGNIFICANT WEATHER AND/OR S TO VISIBILITY
.  
 
MTZ001>007-043-161200-  
WEST OF THE DIVIDE  
 
CITY SKY/WX TMP DP RH WIND PRES REMARKS
 
KALISPELL FAIR 12 9 87 CALM 30.26F  
MISSOULA FAIR 32 24 72 SE16 30.26S WCI 21  
BUTTE FAIR 5 1 83 SE5 30.29S  
MULLAN PASS FOG 26 23 88 S12 30.12F VSB 1/2 WCI 16  
ANACONDA N/A 19 18 93 SW8 30.27F WCI 9  
DEER LODGE N/A 25 21 86 S8 30.28F WCI 16  
EUREKA N/A 28 27 93 MISG 30.29F  
HAMILTON N/A 27 25 93 CALM 30.24F  
RONAN N/A 30 28 93 CALM 30.28S FOG  

 
 
MTZ008-052>055-161200-  
SOUTHWEST MONTANA  
 
CITY SKY/WX TMP DP RH WIND PRES REMARKS
 
BOZEMAN FAIR 8 3 80 VRB3 30.34F  
DILLON FAIR 19 15 84 SW7 30.32F WCI 10  
ENNIS PTCLDY 14 9 79 S5 30.34F  
W YELLOWSTONE MOCLDY -15 -20 76 CALM 30.38S  
THREE FORKS N/A 13 9 84 CALM 30.29F  
TWIN BRIDGES N/A 26 17 68 CALM 30.28  

 
 
MTZ009-010-012-014-046-048-049-054-161200-  
EAST SLOPES AND CENTRAL MONTANA  
 
CITY SKY/WX TMP DP RH WIND PRES REMARKS
 
CUT BANK FOG 2 -1 88 SE6 30.16F VSB 1/4 WCI -9  
GREAT FALLS FAIR 27 13 55 S15 30.18F WCI 15  
MALMSTROM AFB FAIR 0 -1 93 CALM 30.20F  
HELENA FAIR 4 3 96 E3 30.34S  
AUGUSTA FAIR 13 14 100 CALM 30.15F  
BOWMANS CRNR FAIR 24 19 81 S38 30.12F WCI 5  
CHOTEAU N/A 21 16 79 SW9 30.17F WCI 11  
FAIRFIELD FAIR 19 14 81 SE3 30.16F  
POWER FAIR 7 3 83 SE6 30.17F WCI -3  
ULM FAIR 28 17 64 S17 30.19F WCI 15  
WHITE SULPHUR N/A 1 -2 85 N6 30.29F WCI -10  

 
 
MTZ011-013-016-021-045-047-050-051-161200-  
NORTH CENTRAL MONTANA  
 
CITY SKY/WX TMP DP RH WIND PRES REMARKS
 
HAVRE FAIR -29 -35 73 CALM 30.33F  
LEWISTOWN FAIR 9 0 67 SE5 30.19F  
N BAR RANCH FAIR 34 -26 7 VRB5G17 30.26F  
CHINOOK N/A -26 -29 83 CALM 30.37S  
DENTON FAIR 5 -3 68 MISG 30.17F  
GRASS RANGE FAIR 15 -5 40 W5 30.19F  
STANFORD FAIR 21 7 55 SE3 30.16F  
WINIFRED FAIR 12 -5 45 S6 30.21F WCI 3  

 
 
MTZ017>020-022>027-061-062-161200-  
NORTHEAST MONTANA  
 
CITY SKY/WX TMP DP RH WIND PRES REMARKS
 
GLASGOW FAIR N/A N/A N/A E15 30.46F  
GLENDIVE FAIR -16 -22 74 SW8 30.55F WCI -34  
MALTA CLEAR -8 -15 71 NE10 30.39F WCI -26  
SIDNEY FAIR -18 -23 77 S9 N/A WCI -37  
WOLF POINT FAIR -18 -26 67 E5 30.56F  
PLENTYWOOD N/A -17 -22 76 CALM 30.52F  
POPLAR N/A -20 -26 76 CALM 30.57F  
SCOBEY N/A -15 -25 61 S2 30.41  

 
 
MTZ028>42-056>058-161200-  
SOUTHCENTRAL AND SOUTHEAST MONTANA  
 
CITY SKY/WX TMP DP RH WIND PRES REMARKS
 
BAKER FAIR -18 -22 82 E9 30.53F WCI -37  
BILLINGS FAIR 0 -4 83 CALM 30.37F  
LIVINGSTON CLOUDY 15 13 91 NW13 30.31F WCI 1  
MILES CITY FAIR -16 -20 82 SE9 30.50F WCI -35  
BIG TIMBER CLOUDY 14 12 92 SE5 30.34F FOG  
EKALAKA N/A 6 -8 52 SE13 30.38 WCI -10  
FORSYTH N/A -22 -27 76 CALM 30.48F  
HARLOWTON FOG 8 5 89 CALM 30.31F VSB 3/8  
LAUREL N/A 0 -4 85 CALM 30.39F  

 
 
REGIONAL REPORTS...DAKOTAS  
 
CITY SKY/WX TMP DP RH WIND PRES REMARKS
 
WILLISTON FAIR -14 -17 87 CALM 30.62F  
MINOT FAIR -14 -20 74 S8 30.65F WCI -31  
DICKINSON FAIR -12 -18 74 S8 30.56F WCI -29  
BEACH FAIR -13 -18 77 S12 30.56F WCI -33  
CROSBY FAIR -8 -15 71 SW17G26 30.56F WCI -31  
WATFORD CITY FAIR -22 -27 76 CALM 30.61F  
BISMARCK FAIR -20 -25 77 CALM 30.76F  
GRAND FORKS FAIR -15 -20 78 W7 30.79F WCI -31  
FARGO FAIR -13 -19 75 NW6 30.80F WCI -27  
BUFFALO SD N/A -15 -20 78 SE7 30.47F WCI -31  
RAPID CITY FAIR -11 -15 82 SE5 30.59F  

 
 
REGIONAL REPORTS...WYOMING/IDAHO/WASHINGTON  
 
CITY SKY/WX TMP DP RH WIND PRES REMARKS
 
GILLETTE FAIR 2 -6 69 SE9 30.42F WCI -13  
SHERIDAN FAIR -14 -19 79 CALM 30.39F  
BUFFALO WY FAIR 12 -8 40 S9 30.34F WCI 0  
CODY FOG 6 4 91 CALM 30.36F VSB 1/4  
YELLOWSTONE LA N/A -9 -13 83 NW3 30.37F  
IDAHO FALLS FAIR 23 21 92 CALM 30.35R  
SALMON CLOUDY 28 24 85 S6 30.38S WCI 22  
BOISE FAIR 35 28 75 S9 30.21S WCI 28  
SPOKANE FAIR 32 29 88 NE7 30.13S WCI 26  

 
 
REGIONAL REPORTS...ALBERTA  
 
CITY SKY/WX TMP DP RH WIND PRES REMARKS
 
CALGARY CLEAR 21 18 86 SW6 29.97F WCI 14  
CARDSTON N/A 19 10 68 MISG N/A  
EDMONTON CLEAR 9 3 78 S5 30.00F  
FORT MCMURRAY CLEAR 3 1 92 E5 30.03F  
HIGH LEVEL CLEAR 0 -2 92 SE5 29.88F  
LETHBRIDGE CLEAR 21 10 63 S17G23 30.05F WCI 7  
LLOYDMINSTER CLEAR 0 -8 71 SE12 30.11F WCI -18  
MEDICINE HAT CLEAR -6 -9 84 VRB3 30.16F  
MILK RIVER N/A 5 1 85 S20 N/A WCI -15  
ONEFOUR N/A -18 -22 83 E14 N/A WCI -42  
PEACE RIVER CLEAR 7 3 85 SW6 29.91F WCI -3  
PINCHER CREEK CLEAR 34 25 69 NW13G18 30.05F WCI 25  
WATERTON GATE N/A 43 23 45 SW20G30 N/A  

 
 
REGIONAL REPORTS...SASKATCHEWAN  
 
CITY SKY/WX TMP DP RH WIND PRES REMARKS
 
CORONACH N/A -11 -17 77 SE7 N/A WCI -26  
ESTEVAN PTCLDY -4 -13 65 S10G18 30.55F WCI -21  
MOOSE JAW N/A 3 -8 60 S12 N/A WCI -13  
PRINCE ALBERT CLEAR -13 -20 70 VRB2 30.35F  
REGINA CLOUDY -4 -11 71 SE15 30.44F WCI -25  
ROCKGLEN N/A -6 -11 77 S18 N/A WCI -29  
SASKATOON CLEAR -2 -9 71 S13 30.32F WCI -21  
SWIFT CURRENT CLEAR 5 -4 66 S29G37 30.19F WCI -19  
VAL MARIE N/A -11 -17 77 SE6 N/A WCI -25  

 
 
 
CLICK HERE TO GO TO PREVIOUS BULLETINS.

The Nexlab MT Page Main Text Page